Date,TemperatureHighF,TemperatureAvgF,TemperatureLowF,DewpointHighF,DewpointAvgF,DewpointLowF,HumidityHigh,HumidityAvg,HumidityLow,PressureMaxIn,PressureMinIn,WindSpeedMaxMPH,WindSpeedAvgMPH,GustSpeedMaxMPH,PrecipitationSumIn
2013-3-1,67,61,57,53,48,43,72,61,52,29.86,29.76,7,2,0,0.00
2013-3-2,68,57,48,46,39,33,73,52,34,29.91,29.74,11,3,0,0.00
2013-3-3,63,53,46,39,37,33,72,56,39,30.04,29.75,12,3,0,0.00
2013-3-4,67,52,38,42,34,25,83,53,21,30.10,29.91,8,2,0,0.00
2013-3-5,77,62,46,56,50,41,93,67,42,30.07,29.88,9,2,0,0.00
2013-3-6,77,64,52,60,48,28,92,60,25,29.98,29.74,13,3,0,0.00
2013-3-7,71,57,46,52,42,32,88,59,35,30.07,29.89,7,2,0,0.00
2013-3-8,77,61,48,53,47,38,94,67,25,30.08,29.88,6,2,0,0.00
2013-3-9,76,63,51,55,50,47,93,65,46,30.08,29.95,9,2,0,0.00
2013-3-10,76,69,63,56,53,49,64,56,46,30.04,29.85,9,3,0,0.00
2013-3-11,77,71,66,59,56,54,69,61,49,29.98,29.80,10,4,0,0.00
2013-3-12,81,74,66,65,62,58,80,67,56,29.86,29.75,11,3,0,0.00
2013-3-13,74,64,54,62,52,42,85,66,35,30.00,29.85,8,3,0,0.00
2013-3-14,71,59,51,49,44,38,85,59,30,30.08,29.90,11,3,0,0.00
2013-3-15,74,60,49,50,46,41,79,62,36,30.13,29.94,8,2,0,0.00
2013-3-16,75,63,50,58,50,47,95,66,40,30.07,29.89,9,2,0,0.00
2013-3-17,76,66,54,58,55,49,93,70,52,30.02,29.86,9,2,0,0.00
2013-3-18,81,70,64,68,62,57,96,77,59,29.93,29.78,11,2,0,1.10
2013-3-19,84,72,65,68,65,60,96,80,52,29.86,29.71,10,1,0,0.00
2013-3-20,84,71,62,68,61,54,97,74,49,29.82,29.65,6,2,0,0.00
2013-3-21,77,65,53,60,51,39,93,64,27,29.83,29.64,7,2,0,0.00
2013-3-22,76,65,51,66,56,48,96,73,54,29.87,29.75,9,2,0,0.00
2013-3-23,88,78,69,73,68,65,96,74,49,29.85,29.62,7,2,0,0.00
2013-3-24,89,78,70,73,69,62,97,77,49,29.74,29.50,9,3,0,0.70
2013-3-25,82,73,61,72,56,33,98,63,24,29.86,29.59,7,2,0,0.02
2013-3-26,69,60,50,40,34,28,59,39,22,30.10,29.86,13,4,0,0.00
2013-3-27,70,56,44,44,37,29,76,50,26,30.14,29.97,7,3,0,0.00
2013-3-28,74,58,45,48,42,38,83,59,30,30.15,29.99,6,2,0,0.00
2013-3-29,76,62,49,50,47,42,82,60,38,30.16,30.05,7,2,0,0.00
2013-3-30,75,64,52,60,50,44,96,63,36,30.15,30.01,7,2,0,0.00
2013-3-31,80,69,55,62,57,49,94,67,50,30.06,29.89,10,3,0,0.00